Location: Beckers Corners
(42.5484°N, 73.8110°W)
Time: 07:52:49
(UTC+00:00)

DIWATA 2B (PO-101) - Pass Details

Date: 09 December 2024
Orbit: 569 x 582 km, 98.1° (Epoch: 18 January)

Event Time Altitude Azimuth Distance (km) Brightness Sun altitude
Rises 22:33:27 0° 3° (N) 2,792 ? -12.7°
Reaches altitude 10° 22:35:44 10° 355° (N) 1,887 ? -13.1°
Maximum altitude 22:39:25 34° 290° (WNW) 962 ? -13.8°
Drops below altitude 10° 22:43:04 10° 226° (SW) 1,868 ? -14.4°
Sets 22:45:20 0° 216° (SW) 2,759 ? -14.8°
